K4SGK Weather Reports


time (UTC)temp
C
wind
direction
speed
KPH
gust
KPH
rain 1hr
cm
rain 24hr
cm
rain mn
cm
humidity
%
barometer
mb
20260505162004 19 267 8.0 16.1 0.00 0.00 0.00 58 1009.1
20260505161003 19 214 6.4 14.5 0.00 0.00 0.00 58 1009.3
20260505153003 20 216 4.8 12.9 0.00 0.00 0.00 56 1009.0
20260505152003 19 225 6.4 16.1 0.00 0.00 0.00 57 1009.1
20260505151003 19 261 4.8 12.9 0.00 0.00 0.00 58 1009.1
20260505125005 16 211 3.2 4.8 0.00 0.00 0.00 64 1008.4
20260505124005 16 233 1.6 4.8 0.00 0.00 0.00 65 1008.5
20260505123005 16 232 3.2 8.0 0.00 0.00 0.00 65 1008.5
20260505120005 16 218 1.6 4.8 0.00 0.00 0.00 63 1008.4
20260505115004 16 236 1.6 4.8 0.00 0.00 0.00 62 1008.2
20260505111004 15 234 3.2 4.8 0.00 0.00 0.00 61 1007.8
20260505101005 16 249 4.8 8.0 0.00 0.00 0.00 58 1007.5
20260505095005 16 253 4.8 9.7 0.00 0.00 0.00 57 1007.5
20260505094005 16 251 3.2 8.0 0.00 0.00 0.00 57 1007.3
20260505093004 16 261 3.2 8.0 0.00 0.00 0.00 56 1007.2
20260505092004 17 245 4.8 9.7 0.00 0.00 0.00 55 1007.3
20260505091005 17 244 4.8 9.7 0.00 0.00 0.00 55 1007.1
20260505090004 17 240 4.8 11.3 0.00 0.00 0.00 54 1007.4
20260505084004 17 263 8.0 12.9 0.00 0.00 0.00 54 1007.5
20260505083005 17 238 6.4 11.3 0.00 0.00 0.00 55 1007.3
20260505082005 17 223 4.8 11.3 0.00 0.00 0.00 56 1007.2
20260505081005 17 244 6.4 11.3 0.00 0.00 0.00 55 1007.1
20260505073005 17 241 4.8 9.7 0.00 0.00 0.00 55 1007.1
20260505071004 17 263 4.8 11.3 0.00 0.00 0.00 54 1007.1
20260505070005 17 233 4.8 9.7 0.00 0.00 0.00 54 1007.2
20260505065004 17 244 3.2 8.0 0.00 0.00 0.00 54 1007.1
20260505064004 17 251 3.2 12.9 0.00 0.00 0.00 54 1007.2
20260505063005 18 251 6.4 11.3 0.00 0.00 0.00 53 1007.2
20260505062005 18 245 4.8 11.3 0.00 0.00 0.00 53 1007.2
20260505060004 18 253 6.4 12.9 0.00 0.00 0.00 52 1007.5
20260505055004 18 257 3.2 16.1 0.00 0.00 0.00 51 1007.6
20260505054005 18 255 6.4 12.9 0.00 0.00 0.00 51 1007.6
20260505053004 18 260 8.0 14.5 0.00 0.00 0.00 51 1007.6
20260505052004 18 270 6.4 14.5 0.00 0.00 0.00 51 1007.6
20260505051004 18 275 6.4 11.3 0.00 0.00 0.00 50 1007.6
20260505041004 20 269 8.0 14.5 0.00 0.00 0.00 48 1007.1
20260505040005 20 240 4.8 14.5 0.00 0.00 0.00 48 1007.2
20260505035004 20 250 8.0 19.3 0.00 0.00 0.00 48 1006.9
20260505034004 20 257 8.0 19.3 0.00 0.00 0.00 48 1006.7
20260505033004 20 249 8.0 14.5 0.00 0.00 0.00 48 1006.7
20260505031005 20 262 8.0 19.3 0.00 0.00 0.00 48 1006.7
20260505030004 20 242 8.0 14.5 0.00 0.00 0.00 48 1006.8
20260505025004 20 247 8.0 19.3 0.00 0.00 0.00 47 1006.7
20260505024004 20 239 8.0 19.3 0.00 0.00 0.00 47 1006.5
20260505022004 21 262 8.0 16.1 0.00 0.00 0.00 45 1006.2
20260505021004 21 245 6.4 12.9 0.00 0.00 0.00 45 1006.4
20260505015004 21 249 8.0 12.9 0.00 0.00 0.00 44 1006.6
20260505014004 21 258 4.8 16.1 0.00 0.00 0.00 44 1006.3
20260505013005 21 262 4.8 12.9 0.00 0.00 0.00 44 1006.5
20260505012004 21 264 8.0 16.1 0.00 0.00 0.00 43 1006.6
20260505011004 21 252 4.8 11.3 0.00 0.00 0.00 43 1006.6
20260505010004 22 257 4.8 11.3 0.00 0.00 0.00 42 1006.5
20260505005004 22 245 6.4 12.9 0.00 0.00 0.00 42 1006.5
20260505004004 22 256 4.8 9.7 0.00 0.00 0.00 41 1006.6
20260505003003 22 257 6.4 11.3 0.00 0.00 0.00 40 1006.6
20260505002004 22 235 4.8 9.7 0.00 0.00 0.00 39 1006.6
20260505001003 23 234 6.4 9.7 0.00 0.00 0.00 39 1006.6
20260504234005 23 259 8.0 14.5 0.00 0.00 0.00 38 1006.8
20260504233004 23 263 8.0 16.1 0.00 0.00 0.00 36 1006.8
20260504232004 23 258 9.7 19.3 0.00 0.00 0.00 36 1007.0
20260504231004 24 259 8.0 22.5 0.00 0.00 0.00 35 1007.0
20260504230005 24 249 11.3 24.1 0.00 0.00 0.00 35 1007.1
20260504225004 24 243 8.0 19.3 0.00 0.00 0.00 37 1007.1
20260504224004 25 254 9.7 22.5 0.00 0.00 0.00 36 1007.1
20260504223004 25 263 8.0 19.3 0.00 0.00 0.00 36 1007.1
20260504222003 25 257 9.7 19.3 0.00 0.00 0.00 36 1007.2
20260504221004 25 236 11.3 27.4 0.00 0.00 0.00 35 1007.0
20260504220003 25 247 9.7 19.3 0.00 0.00 0.00 35 1006.9
20260504215004 25 236 8.0 19.3 0.00 0.00 0.00 35 1006.9
20260504214004 25 252 11.3 20.9 0.00 0.00 0.00 35 1006.8
20260504213004 25 219 8.0 19.3 0.00 0.00 0.00 37 1006.8
20260504212004 25 223 6.4 19.3 0.00 0.00 0.00 37 1006.8
20260504211004 25 245 9.7 19.3 0.00 0.00 0.00 36 1006.8
20260504210004 25 251 11.3 22.5 0.00 0.00 0.00 36 1007.0
20260504205004 25 258 9.7 19.3 0.00 0.00 0.00 35 1007.0
20260504204004 25 243 12.9 24.1 0.00 0.00 0.00 33 1007.1
20260504203004 25 268 14.5 24.1 0.00 0.00 0.00 35 1007.4
20260504202004 25 212 16.1 27.4 0.00 0.00 0.00 32 1007.4
20260504201003 25 212 11.3 20.9 0.00 0.00 0.00 35 1007.5
20260504200004 25 240 9.7 19.3 0.00 0.00 0.00 36 1007.5
20260504194004 25 252 11.3 20.9 0.00 0.00 0.00 38 1007.9
20260504193004 25 270 9.7 19.3 0.00 0.00 0.00 37 1008.0
20260504192004 25 254 16.1 27.4 0.00 0.00 0.00 37 1008.2
20260504190004 25 282 11.3 22.5 0.00 0.00 0.00 39 1008.5
20260504185004 25 264 6.4 12.9 0.00 0.00 0.00 42 1008.6
20260504184004 25 274 8.0 20.9 0.00 0.00 0.00 42 1008.6
20260504183003 24 257 9.7 19.3 0.00 0.00 0.00 42 1008.7
20260504182004 24 268 8.0 16.1 0.00 0.00 0.00 42 1008.9
20260504181004 23 259 4.8 19.3 0.00 0.00 0.00 42 1008.9
20260504180004 23 236 8.0 19.3 0.00 0.00 0.00 43 1009.2
20260504175004 23 228 8.0 14.5 0.00 0.00 0.00 43 1009.2
20260504174003 23 240 9.7 16.1 0.00 0.00 0.00 45 1009.2
20260504173004 22 239 9.7 16.1 0.00 0.00 0.00 45 1009.3
20260504172004 22 202 8.0 19.3 0.00 0.00 0.00 48 1009.4
20260504171003 22 212 9.7 24.1 0.00 0.00 0.00 47 1009.7